SCP
0 0 0 0 0 0 0 0 0 0 0 0 0 0 0 0 0 0 -0 -0 0 -0 0 -0 -0 -0 -0 -0 -0 -0 -0 -0 -0 -0 -0 -0 -0 -0 -0 -0 -0 -0 -0 -0 -0 -0 -0 -0 -0
0 0 0 0 0 0 0 0 0 0 0 0 0 0 0 0 0 0 0 0 -0 0 0 0 -0 -0 -0 -0 -0 -0 -0 -0 -0 -0 -0 -0 -0 -0 -0 -0 -0 -0 -0 -0 -0 -0 -0 -0 -0
0 0 0 0 0 0 0 0 0 0 0 0 0 0 0 0 0 0 0 0 0 0 0 0 -0 -0 -0 -0 -0 -0 -0 -0 -0 -0 -0 -0 -0 -0 -0 -0 -0 -0 -0 -0 -0 -0 -0 -0 -0
0 0 0 0 0 0 0 0 0 0 0 0 0 0 0 0 0 0 -0 -0 0 0 0 0 -0 -0 -0 -0 -0 -0 -0 -0 -0 0 -0 -0 -0 -0 -0 -0 -0 -0 -0 -0 -0 -0 -0 -0 -0
0 0 0 0 0 0 0 0 0 0 0 0 0 0 0 0 0 0 0 0 0 0 0 0 0 -0 -0 0 0 -0 -0 0 0 0 -0 -0 -0 -0 -0 -0 -0 -0 -0 -0 -0 -0 -0 -0 -0
0 0 0 0 0 0 0 0 0 0 0 0 0 0 0 0 0 0 0 0 0 0 0 0 0 0 0 0 0 0 -0 -0 0 0 0 -0 -0 -0 -0 -0 -0 -0 -0 -0 -0 -0 -0 -0 -0
0 0 0 0 0 0 0 0 0 0 0 0 0 0 0 0 0 0 0 0 0 0 0 0 0 0 0 0 0 0 0 0 0 0 0 0 0 -0 0 0 0 -0 -0 -0 -0 -0 -0 -0 -0
0 0 0 0 0 0 0 0 0 0 0 0 0 0 0 0 0 0 0 0 0 0 0 0 0 0 0 0 0 0 0 0 0 0 0 0 0 0 0 0 0 0 0 -0 -0 -0 -0 -0 -0
0 0 0 0 0 0 0 0 0 0 0 0 0 0 0 0 0 0 0 0 0 0 0 0 0 0 0 0 0 0 0 0 0 0 0 0 0 0 0 0 0 0 0 0 0 -0 0 0 0
0 0 0 0 0 0 0 0 0 0 0 0 0 0 0 0 0 0 0 0 0 0 0 0 0 0 0 0 0 0 0 0 0 0 0 0 0 0 0 0 0 0 0 0 0 0 -0 0 0
0 0 0 0 0 0 0 0 0 0 0 0 0 0 0 0 0 0 0 0 0 0 0 0 0 0 0 0 0 0 0 0 0 0 0 0 0 0 0 0 0 0 0 0 0 0 0 0 0
0 0 0 0 0 0 0 0 0 0 0 0 0 0 0 0 0 0 0 0 0 0 0 0 0 0 0 0 0 0 0 0 0 0 0 0 0 0 0 0 0 0 0 0 0 0 0 0 0
0 0 0 0 0 0 0 0 0 0 0 0 0 0 0 0 0 0 0 0 0 0 0 0 0 0 0 0 0 0 0 0 0 0 0 0 0 0 0 0 0 0 0 0 0 0 0 0 0
0 0 0 0 0 0 0 0 0 0 0 0 0 0 0 0 0 0 0 0 0 0 0 0 0 0 0 0 0 0 0 0 0 0 0 0 0 0 0 0 0 0 0 0 0 0 0 0 0
0 0 0 0 0 0 0 0 0 0 0 0 0 0 0 0 0 0 0 0 0 0 0 0 0 0 0 0 0 0 0 0 0 0 0 0 0 0 0 0 0 0 0 0 0 0 0 0 0
0 0 0 0 0 0 0 0 0 0 0 0 0 0 0 0 0 0 0 0 0 0 0 0 0 0 0 0 0 0 0 0 0 0 0 0 0 0 0 0 0 0 0 0 0 0 0 0 0
0 0 0 0 0 0 0 0 0 0 0 0 0 0 0 0 0 0 0 0 0 0 0 0 0 0 0 0 0 0 0 0 0 0 0 0 0 0 0 0 0 0 0 0 0 0 0 0 0
0 0 0 0 0 0 0 0 0 0 0 0 0 0 0 0 0 0 0 0 0 0 0 0 0 0 0 0 0 0 0 0 0 0 0 0 0 0 0 0 0 0 0 0 0 0 0 0 0
0 0 0 0 0 0 0 0 0 0 0 0 0 0 0 0 0 0 0 0 0 0 0 0 0 0 0 0 0 0 0 0 0 0 0 0 0 0 0 0 0 0 0 0 0 0 0 0 0
0 0 0 0 0 0 0 0 0 0 0 0 0 0 0 0 0 0 0 0 0 0 0 0 0 0 0 0 0 0 0 0 0 0 0 0 0 0 0 0 0 0 0 0 0 0 0 0 0
0 0 0 0 0 0 0 0 0 0 0 0 0 0 0 0 0 0 0 0 0 0 0 0 0 0 0 0 0 0 0 0 0 0 0 0 0 0 0 0 0 0 0 0 0 0 0 0 0
0 0 0 0 0 0 0 0 -0 0 0 0 0 0 0 0 0 0 0 0 0 0 0 0 0 0 0 0 0 0 0 0 0 0 0 0 0 0 0 0 0 0 0 0 0 0 0 0 0
0 0 0 0 0 0 0 0 -0 0 0 0 0 0 0 0 0 0 0 0 0 0 0 0 0 0 0 0 0 0 0 0 0 0 0 0 0 0 0 0 0 0 0 0 0 0 0 0 0
0 0 0 0 0 0 0 0 -0 0 0 0 0 0 0 0 0 0 0 0 0 0 0 0 0 0 0 0 0 0 0 0 0 0 0 0 0 0 0 0 0 0 0 0 0 0 0 0 0
0 0 0 0 0 0 0 0 0 0 0 0 0 0 0 0 0 0 0 0 0 0 0 0 0 0 0 0 0 0 0 0 0 0 0 0 0 0 0 0 0 0 0 0 0 0 0 0 0
0 0 0 0 0 0 0 0 0 0 0 0 0 0 0 0 0 0 0 0 0 0 0 0 0 0 0 0 0 0 0 0 0 0 0 0 0 0 0 0 0 0 0 0 0 0 0 0 0
0 0 0 0 0 0 0 0 0 0 0 0 0 0 -0 -0 -0 0 0 0 0 0 0 0 0 0 0 0 0 0 0 0 0 0 0 0 0 0 0 0 0 0 0 0 0 0 0 0 0
0 0 0 0 0 0 0 0 0 0 0 0 0 0 0 -0 0 0 0 0 0 0 0 0 0 0 0 0 0 0 0 0 0 0 0 0 0 0 0 0 0 0 0 0 0 0 0 0 0
-0 0 0 0 0 0 0 0 0 0 0 0 0 -0 -0 -0 -0 0 0 0 0 0 0 0 0 0 0 0 0 0 0 0 0 0 0 0 0 0 0 0 0 0 0 0 0 0 0 0 0
0 0 0 0 0 0 0 0 0 0 0 0 0 0 0 0 0 0 0 0 0 0 0 0 0 0 0 0 0 0 0 0 0 0 0 0 0 0 0 0 0 0 0 0 0 0 0 0 0
Wind_Speed_500mb
11 11 9 6 5 7 5 10 6 4 5 4 3 6 11 6 2 4 24 35 44 50 64 56 51 46 39 28 21 13 10 23 32 37 51 43 44 42 37 39 39 39 26 23 29 26 30 27 24
12 9 3 5 7 3 8 7 2 4 8 7 6 11 8 4 5 13 44 26 39 49 67 60 53 47 37 28 20 14 26 33 31 36 48 43 45 43 35 33 29 30 29 25 15 19 20 25 27
11 8 2 7 7 9 7 4 8 11 12 7 3 5 7 8 14 29 19 36 38 50 67 61 54 47 37 29 22 20 16 29 34 38 39 43 41 43 34 34 30 29 26 19 21 19 23 30 33
3 2 4 7 12 11 10 5 12 10 6 7 9 7 5 5 21 31 26 40 40 54 65 59 54 47 38 31 25 20 18 38 40 41 42 36 32 33 33 32 27 27 28 28 30 27 26 38 36
4 4 5 1 12 10 5 17 18 7 11 11 9 10 8 11 16 24 32 44 44 59 62 58 53 47 40 32 27 24 28 38 49 43 42 32 27 33 27 27 39 38 34 40 35 28 34 39 40
6 5 5 7 12 11 12 25 10 9 14 10 9 14 11 16 20 23 37 44 40 56 61 57 53 46 40 34 29 28 30 32 45 44 37 32 40 36 30 36 39 35 32 36 35 30 37 41 39
12 8 7 7 10 15 7 20 10 11 7 11 8 10 6 25 25 27 43 42 40 52 60 60 55 47 39 32 29 32 33 37 41 48 37 44 39 34 36 35 35 33 33 44 40 32 35 48 45
10 8 5 8 8 16 5 13 10 17 9 9 11 10 10 33 38 47 48 42 40 49 56 58 56 50 42 34 29 33 35 37 43 41 43 47 40 34 32 42 40 38 33 33 39 36 45 42 39
13 7 8 11 13 13 12 9 4 8 10 8 10 11 7 24 44 61 55 50 48 48 48 55 58 54 44 40 33 35 40 41 45 45 48 45 41 39 36 43 39 39 38 34 36 36 50 45 41
9 10 21 16 13 9 7 10 20 9 8 3 10 12 15 23 45 60 64 66 62 60 57 55 61 60 53 47 41 42 44 44 46 47 49 48 46 42 39 41 43 42 39 36 33 35 45 43 37
12 14 13 17 40 26 6 10 12 9 8 18 19 25 29 39 48 59 63 64 67 64 63 58 62 61 60 55 49 48 48 48 45 48 50 50 48 50 48 43 43 41 37 35 37 41 41 40 36
8 19 23 22 48 11 8 17 9 27 31 36 18 15 35 44 52 62 66 67 65 66 66 60 63 65 64 57 55 54 53 50 50 47 43 52 55 51 50 49 39 34 36 34 36 37 36 36 33
9 9 22 31 38 30 24 22 24 21 31 47 45 28 40 52 55 61 63 62 64 66 66 66 66 70 68 65 62 62 59 53 49 51 49 48 52 49 47 48 41 38 38 37 36 36 34 32 31
11 17 23 18 17 22 14 18 19 23 50 42 51 46 37 52 60 62 66 68 67 67 69 68 72 72 76 73 70 67 64 57 53 54 53 51 49 50 50 48 46 43 42 39 38 33 32 32 28
12 13 13 13 12 11 18 33 23 49 62 56 61 56 49 51 56 70 62 69 63 64 69 73 74 74 78 77 75 72 70 65 60 59 56 56 53 53 53 52 49 47 45 44 43 41 38 34 31
5 4 5 6 16 18 22 47 3 27 55 66 70 69 68 67 68 71 70 69 68 71 74 74 78 80 79 79 78 78 73 68 65 63 59 56 56 55 56 56 54 51 51 50 47 43 39 37 33
4 9 13 12 22 10 19 44 10 39 54 58 65 66 75 79 78 78 78 84 79 79 73 76 79 84 86 83 80 80 76 73 73 68 68 57 56 56 60 58 57 55 55 54 50 47 42 38 34
16 14 12 14 13 20 27 41 13 44 47 52 69 80 80 72 68 54 66 85 87 91 84 78 78 83 89 91 84 84 84 82 77 75 74 65 57 56 61 64 61 60 59 56 54 51 47 42 36
6 12 15 2 10 4 15 29 18 35 42 32 51 65 77 70 60 59 53 59 86 94 99 91 85 85 91 98 98 96 96 92 89 85 78 74 67 60 60 68 68 66 64 60 56 52 52 49 43
24 20 34 17 14 10 29 42 17 15 18 44 50 59 58 61 60 61 57 52 65 92 108 102 95 93 93 98 100 103 98 95 91 87 83 79 77 68 64 64 73 73 68 64 62 61 58 52 49
27 33 26 26 11 16 14 37 32 21 31 54 64 63 68 72 75 75 70 68 59 76 105 111 105 101 97 97 101 99 94 91 94 97 93 89 84 80 73 66 70 72 71 69 67 66 62 60 56
29 18 30 29 9 11 12 21 16 7 16 17 44 60 69 81 91 95 98 92 83 67 76 101 112 110 103 101 103 104 104 110 112 107 103 95 93 88 83 74 68 66 69 72 72 67 66 62 61
18 15 15 11 10 7 16 7 12 1 13 18 25 62 65 69 73 74 77 79 93 88 71 82 105 119 112 110 107 104 103 104 105 109 107 103 101 99 91 85 77 74 74 75 72 72 70 66 64
12 11 13 8 5 15 32 12 38 23 25 19 21 54 58 63 55 43 55 70 75 83 88 74 103 116 118 110 108 109 105 105 99 106 108 111 105 105 100 93 87 82 78 75 71 70 68 67 66
15 9 5 5 9 25 18 18 49 10 14 21 32 45 53 50 46 52 35 32 46 59 73 79 87 108 115 115 111 108 108 106 106 102 102 107 109 110 113 105 99 94 87 80 73 72 70 71 71
11 16 9 13 14 20 16 21 27 9 25 53 60 64 67 66 61 47 38 31 32 35 57 75 86 99 109 116 116 110 106 109 108 108 101 102 109 111 111 111 105 102 95 88 81 78 74 74 72
9 8 17 25 33 14 10 23 22 25 20 16 35 50 61 76 76 61 60 59 52 49 48 58 87 96 97 100 113 115 110 111 109 105 108 107 103 104 104 103 107 109 102 95 88 85 83 81 77
10 8 7 9 12 26 12 21 19 15 24 24 21 28 58 63 71 68 57 52 40 43 45 44 69 93 99 102 111 116 117 114 110 101 106 111 108 104 105 102 98 108 109 102 98 96 90 88 80
4 8 9 9 9 22 31 24 17 18 20 30 35 37 51 64 73 71 57 53 45 41 45 50 53 64 88 100 105 113 116 114 108 105 100 107 105 104 105 107 98 95 103 105 106 104 100 93 86
19 10 6 3 8 7 7 14 15 25 30 17 29 52 71 79 82 78 49 44 42 38 38 47 52 59 67 82 91 103 107 108 106 104 100 97 104 106 104 102 102 95 93 97 102 107 107 99 97
Wind_Direction_500mb
321 344 295 304 48 64 240 261 270 60 76 159 76 98 130 76 140 216 143 155 166 169 175 175 176 176 176 175 169 162 150 147 150 143 148 144 147 147 144 145 141 125 139 163 134 145 145 147 138
316 335 114 103 85 44 267 247 107 163 142 106 108 119 123 138 160 158 153 170 172 170 175 180 182 183 186 175 170 161 138 136 137 140 154 156 158 157 156 157 173 152 138 145 164 164 163 156 139
314 310 96 106 134 190 228 8 178 154 122 119 107 64 136 166 177 171 176 162 173 177 177 182 184 186 184 179 172 167 170 155 148 138 147 169 168 172 169 169 161 179 172 169 156 160 152 140 135
354 94 66 101 233 250 216 280 236 151 126 135 143 71 85 175 170 179 178 170 178 179 180 185 184 184 181 178 175 176 160 148 153 143 153 161 178 181 189 191 186 150 156 142 140 152 142 135 130
53 56 54 239 259 248 300 290 229 184 164 157 186 166 162 158 175 202 180 176 180 177 182 186 186 184 182 180 177 178 164 171 153 151 168 176 174 156 155 167 149 153 158 150 147 157 134 134 134
98 87 62 245 255 281 289 305 223 200 172 149 144 156 168 173 181 195 187 182 186 183 184 187 186 187 187 184 178 178 176 167 165 159 171 169 158 161 154 145 155 159 163 146 154 160 147 150 139
122 94 217 234 270 305 244 317 219 203 197 201 157 145 186 178 173 191 191 187 186 190 187 186 188 189 190 187 181 181 176 169 171 175 165 165 168 174 168 156 157 157 158 158 156 158 159 154 148
154 104 199 246 212 268 264 305 264 196 207 155 186 178 215 193 172 187 191 194 189 189 193 191 191 190 188 188 186 182 178 172 174 171 173 176 171 175 169 162 165 158 164 162 159 156 159 164 148
168 89 208 238 176 245 338 351 329 266 173 166 164 170 227 186 175 184 190 192 191 191 193 198 197 192 193 195 190 183 186 186 181 176 178 173 175 176 174 166 166 164 169 168 160 163 157 157 154
157 161 210 205 194 235 323 355 325 318 307 166 174 197 209 190 184 190 193 195 195 195 196 201 205 198 197 199 194 192 190 196 193 187 180 177 180 176 175 171 174 172 176 174 162 157 158 163 164
196 189 229 254 240 244 244 280 280 278 264 234 216 222 202 191 193 199 202 207 204 201 200 204 209 209 202 199 200 199 198 199 205 202 188 181 184 182 183 179 182 178 169 165 159 158 161 165 172
240 234 222 243 257 256 220 271 246 236 252 268 251 250 231 209 202 207 207 208 210 208 208 206 209 212 210 205 215 211 204 204 204 210 210 198 190 191 186 187 183 173 170 169 166 165 167 170 175
214 256 256 254 271 286 270 221 244 233 251 261 267 259 231 226 223 214 215 215 212 212 214 212 211 212 215 216 217 218 208 213 210 211 217 219 207 197 195 188 190 184 181 179 176 173 175 178 179
308 281 272 281 264 283 266 257 228 248 261 254 258 257 239 231 228 219 213 219 216 218 220 216 213 216 218 217 220 222 216 213 218 214 220 225 221 206 200 199 200 196 194 189 186 186 186 186 185
289 311 309 219 229 239 297 276 234 249 259 258 254 255 246 237 235 227 224 221 223 224 224 222 215 214 221 220 222 225 223 217 222 219 223 227 227 219 209 206 206 204 200 196 193 193 193 193 194
286 287 244 271 191 235 195 249 200 248 244 253 257 250 246 247 241 238 234 235 234 228 223 225 221 217 221 223 223 227 226 227 226 225 223 228 230 225 217 214 211 207 204 203 202 200 200 200 202
286 248 235 259 217 238 191 264 244 258 258 260 258 258 255 250 254 249 245 237 237 235 229 225 225 222 220 225 224 228 229 228 228 230 223 225 230 229 223 220 214 209 209 209 208 207 208 210 209
198 221 238 227 216 206 235 258 281 277 276 257 256 255 251 252 254 257 256 246 239 236 232 229 228 226 222 223 225 227 231 231 229 232 227 223 225 232 230 225 218 213 214 213 213 213 213 215 216
228 252 247 237 218 295 246 269 239 254 267 261 265 254 254 252 255 260 266 257 242 237 230 229 226 227 222 220 221 225 227 229 230 231 228 225 224 228 233 227 225 221 219 219 217 216 218 218 217
251 260 261 278 251 242 274 274 256 224 244 258 265 265 259 262 262 261 264 261 242 237 232 230 229 227 226 224 225 225 228 229 233 234 230 228 226 227 230 234 228 227 224 223 221 219 219 219 219
241 238 257 251 269 237 272 278 274 256 235 253 259 260 264 265 265 262 258 258 256 240 233 231 230 229 228 228 224 222 226 226 230 234 230 230 228 228 229 232 230 230 230 227 225 223 221 222 221
254 221 244 252 234 253 195 278 235 261 256 238 248 259 256 259 260 259 260 257 257 250 239 235 233 229 229 227 218 221 219 219 227 233 233 230 229 229 229 230 234 235 234 231 228 228 227 224 225
251 302 256 244 241 222 242 251 306 220 270 266 257 260 264 266 265 265 264 259 254 254 247 240 236 229 227 225 224 224 219 225 229 229 233 234 232 230 229 229 231 233 232 232 231 228 228 229 229
319 311 302 236 175 243 245 198 271 247 249 263 263 262 268 265 274 291 275 264 260 251 250 243 233 231 228 227 226 227 227 227 222 231 232 236 233 229 230 231 233 233 233 233 232 231 232 233 233
267 272 282 256 206 243 174 194 248 278 274 246 262 266 275 284 268 291 274 282 251 245 245 239 235 233 229 229 229 229 231 231 227 226 228 231 233 231 230 231 230 232 232 234 233 232 232 233 233
304 222 230 211 224 260 171 227 238 227 261 254 263 275 286 289 293 279 289 264 266 265 245 237 237 234 231 232 232 231 233 233 233 228 228 230 233 235 235 234 233 233 233 234 234 234 236 237 236
328 233 251 253 269 277 233 274 288 287 279 274 283 295 301 299 305 302 300 297 268 271 260 247 239 237 238 238 237 234 233 233 234 234 234 233 235 236 237 240 235 236 235 235 238 236 235 237 237
205 344 298 216 239 245 235 253 250 312 310 295 286 301 309 312 317 322 308 298 272 261 256 255 245 240 242 240 237 236 235 236 236 238 234 234 236 237 237 244 242 237 237 238 238 238 237 237 238
206 238 251 332 262 241 252 257 239 220 261 289 305 315 325 332 336 324 308 286 286 278 257 249 247 242 240 239 239 237 236 234 235 237 237 237 238 237 239 241 248 243 240 239 239 239 239 239 238
243 241 163 188 344 292 268 269 279 9 344 337 321 321 320 319 321 340 318 289 270 260 251 245 240 238 243 242 242 241 239 237 234 236 236 237 239 241 242 242 244 245 243 242 240 240 240 241 239
Wind_Speed_850mb
11 11 9 6 5 7 5 10 6 4 5 4 3 6 11 6 2 4 24 35 44 50 64 56 51 46 39 28 21 13 10 23 32 37 51 43 44 42 37 39 39 39 26 23 29 26 30 27 24
12 9 3 5 7 3 8 7 2 4 8 7 6 11 8 4 5 13 44 26 39 49 67 60 53 47 37 28 20 14 26 33 31 36 48 43 45 43 35 33 29 30 29 25 15 19 20 25 27
11 8 2 7 7 9 7 4 8 11 12 7 3 5 7 8 14 29 19 36 38 50 67 61 54 47 37 29 22 20 16 29 34 38 39 43 41 43 34 34 30 29 26 19 21 19 23 30 33
3 2 4 7 12 11 10 5 12 10 6 7 9 7 5 5 21 31 26 40 40 54 65 59 54 47 38 31 25 20 18 38 40 41 42 36 32 33 33 32 27 27 28 28 30 27 26 38 36
4 4 5 1 12 10 5 17 18 7 11 11 9 10 8 11 16 24 32 44 44 59 62 58 53 47 40 32 27 24 28 38 49 43 42 32 27 33 27 27 39 38 34 40 35 28 34 39 40
6 5 5 7 12 11 12 25 10 9 14 10 9 14 11 16 20 23 37 44 40 56 61 57 53 46 40 34 29 28 30 32 45 44 37 32 40 36 30 36 39 35 32 36 35 30 37 41 39
12 8 7 7 10 15 7 20 10 11 7 11 8 10 6 25 25 27 43 42 40 52 60 60 55 47 39 32 29 32 33 37 41 48 37 44 39 34 36 35 35 33 33 44 40 32 35 48 45
10 8 5 8 8 16 5 13 10 17 9 9 11 10 10 33 38 47 48 42 40 49 56 58 56 50 42 34 29 33 35 37 43 41 43 47 40 34 32 42 40 38 33 33 39 36 45 42 39
13 7 8 11 13 13 12 9 4 8 10 8 10 11 7 24 44 61 55 50 48 48 48 55 58 54 44 40 33 35 40 41 45 45 48 45 41 39 36 43 39 39 38 34 36 36 50 45 41
9 10 21 16 13 9 7 10 20 9 8 3 10 12 15 23 45 60 64 66 62 60 57 55 61 60 53 47 41 42 44 44 46 47 49 48 46 42 39 41 43 42 39 36 33 35 45 43 37
12 14 13 17 40 26 6 10 12 9 8 18 19 25 29 39 48 59 63 64 67 64 63 58 62 61 60 55 49 48 48 48 45 48 50 50 48 50 48 43 43 41 37 35 37 41 41 40 36
8 19 23 22 48 11 8 17 9 27 31 36 18 15 35 44 52 62 66 67 65 66 66 60 63 65 64 57 55 54 53 50 50 47 43 52 55 51 50 49 39 34 36 34 36 37 36 36 33
9 9 22 31 38 30 24 22 24 21 31 47 45 28 40 52 55 61 63 62 64 66 66 66 66 70 68 65 62 62 59 53 49 51 49 48 52 49 47 48 41 38 38 37 36 36 34 32 31
11 17 23 18 17 22 14 18 19 23 50 42 51 46 37 52 60 62 66 68 67 67 69 68 72 72 76 73 70 67 64 57 53 54 53 51 49 50 50 48 46 43 42 39 38 33 32 32 28
12 13 13 13 12 11 18 33 23 49 62 56 61 56 49 51 56 70 62 69 63 64 69 73 74 74 78 77 75 72 70 65 60 59 56 56 53 53 53 52 49 47 45 44 43 41 38 34 31
5 4 5 6 16 18 22 47 3 27 55 66 70 69 68 67 68 71 70 69 68 71 74 74 78 80 79 79 78 78 73 68 65 63 59 56 56 55 56 56 54 51 51 50 47 43 39 37 33
4 9 13 12 22 10 19 44 10 39 54 58 65 66 75 79 78 78 78 84 79 79 73 76 79 84 86 83 80 80 76 73 73 68 68 57 56 56 60 58 57 55 55 54 50 47 42 38 34
16 14 12 14 13 20 27 41 13 44 47 52 69 80 80 72 68 54 66 85 87 91 84 78 78 83 89 91 84 84 84 82 77 75 74 65 57 56 61 64 61 60 59 56 54 51 47 42 36
6 12 15 2 10 4 15 29 18 35 42 32 51 65 77 70 60 59 53 59 86 94 99 91 85 85 91 98 98 96 96 92 89 85 78 74 67 60 60 68 68 66 64 60 56 52 52 49 43
24 20 34 17 14 10 29 42 17 15 18 44 50 59 58 61 60 61 57 52 65 92 108 102 95 93 93 98 100 103 98 95 91 87 83 79 77 68 64 64 73 73 68 64 62 61 58 52 49
27 33 26 26 11 16 14 37 32 21 31 54 64 63 68 72 75 75 70 68 59 76 105 111 105 101 97 97 101 99 94 91 94 97 93 89 84 80 73 66 70 72 71 69 67 66 62 60 56
29 18 30 29 9 11 12 21 16 7 16 17 44 60 69 81 91 95 98 92 83 67 76 101 112 110 103 101 103 104 104 110 112 107 103 95 93 88 83 74 68 66 69 72 72 67 66 62 61
18 15 15 11 10 7 16 7 12 1 13 18 25 62 65 69 73 74 77 79 93 88 71 82 105 119 112 110 107 104 103 104 105 109 107 103 101 99 91 85 77 74 74 75 72 72 70 66 64
12 11 13 8 5 15 32 12 38 23 25 19 21 54 58 63 55 43 55 70 75 83 88 74 103 116 118 110 108 109 105 105 99 106 108 111 105 105 100 93 87 82 78 75 71 70 68 67 66
15 9 5 5 9 25 18 18 49 10 14 21 32 45 53 50 46 52 35 32 46 59 73 79 87 108 115 115 111 108 108 106 106 102 102 107 109 110 113 105 99 94 87 80 73 72 70 71 71
11 16 9 13 14 20 16 21 27 9 25 53 60 64 67 66 61 47 38 31 32 35 57 75 86 99 109 116 116 110 106 109 108 108 101 102 109 111 111 111 105 102 95 88 81 78 74 74 72
9 8 17 25 33 14 10 23 22 25 20 16 35 50 61 76 76 61 60 59 52 49 48 58 87 96 97 100 113 115 110 111 109 105 108 107 103 104 104 103 107 109 102 95 88 85 83 81 77
10 8 7 9 12 26 12 21 19 15 24 24 21 28 58 63 71 68 57 52 40 43 45 44 69 93 99 102 111 116 117 114 110 101 106 111 108 104 105 102 98 108 109 102 98 96 90 88 80
4 8 9 9 9 22 31 24 17 18 20 30 35 37 51 64 73 71 57 53 45 41 45 50 53 64 88 100 105 113 116 114 108 105 100 107 105 104 105 107 98 95 103 105 106 104 100 93 86
19 10 6 3 8 7 7 14 15 25 30 17 29 52 71 79 82 78 49 44 42 38 38 47 52 59 67 82 91 103 107 108 106 104 100 97 104 106 104 102 102 95 93 97 102 107 107 99 97
Wind_Direction_850mb
321 344 295 304 48 64 240 261 270 60 76 159 76 98 130 76 140 216 143 155 166 169 175 175 176 176 176 175 169 162 150 147 150 143 148 144 147 147 144 145 141 125 139 163 134 145 145 147 138
316 335 114 103 85 44 267 247 107 163 142 106 108 119 123 138 160 158 153 170 172 170 175 180 182 183 186 175 170 161 138 136 137 140 154 156 158 157 156 157 173 152 138 145 164 164 163 156 139
314 310 96 106 134 190 228 8 178 154 122 119 107 64 136 166 177 171 176 162 173 177 177 182 184 186 184 179 172 167 170 155 148 138 147 169 168 172 169 169 161 179 172 169 156 160 152 140 135
354 94 66 101 233 250 216 280 236 151 126 135 143 71 85 175 170 179 178 170 178 179 180 185 184 184 181 178 175 176 160 148 153 143 153 161 178 181 189 191 186 150 156 142 140 152 142 135 130
53 56 54 239 259 248 300 290 229 184 164 157 186 166 162 158 175 202 180 176 180 177 182 186 186 184 182 180 177 178 164 171 153 151 168 176 174 156 155 167 149 153 158 150 147 157 134 134 134
98 87 62 245 255 281 289 305 223 200 172 149 144 156 168 173 181 195 187 182 186 183 184 187 186 187 187 184 178 178 176 167 165 159 171 169 158 161 154 145 155 159 163 146 154 160 147 150 139
122 94 217 234 270 305 244 317 219 203 197 201 157 145 186 178 173 191 191 187 186 190 187 186 188 189 190 187 181 181 176 169 171 175 165 165 168 174 168 156 157 157 158 158 156 158 159 154 148
154 104 199 246 212 268 264 305 264 196 207 155 186 178 215 193 172 187 191 194 189 189 193 191 191 190 188 188 186 182 178 172 174 171 173 176 171 175 169 162 165 158 164 162 159 156 159 164 148
168 89 208 238 176 245 338 351 329 266 173 166 164 170 227 186 175 184 190 192 191 191 193 198 197 192 193 195 190 183 186 186 181 176 178 173 175 176 174 166 166 164 169 168 160 163 157 157 154
157 161 210 205 194 235 323 355 325 318 307 166 174 197 209 190 184 190 193 195 195 195 196 201 205 198 197 199 194 192 190 196 193 187 180 177 180 176 175 171 174 172 176 174 162 157 158 163 164
196 189 229 254 240 244 244 280 280 278 264 234 216 222 202 191 193 199 202 207 204 201 200 204 209 209 202 199 200 199 198 199 205 202 188 181 184 182 183 179 182 178 169 165 159 158 161 165 172
240 234 222 243 257 256 220 271 246 236 252 268 251 250 231 209 202 207 207 208 210 208 208 206 209 212 210 205 215 211 204 204 204 210 210 198 190 191 186 187 183 173 170 169 166 165 167 170 175
214 256 256 254 271 286 270 221 244 233 251 261 267 259 231 226 223 214 215 215 212 212 214 212 211 212 215 216 217 218 208 213 210 211 217 219 207 197 195 188 190 184 181 179 176 173 175 178 179
308 281 272 281 264 283 266 257 228 248 261 254 258 257 239 231 228 219 213 219 216 218 220 216 213 216 218 217 220 222 216 213 218 214 220 225 221 206 200 199 200 196 194 189 186 186 186 186 185
289 311 309 219 229 239 297 276 234 249 259 258 254 255 246 237 235 227 224 221 223 224 224 222 215 214 221 220 222 225 223 217 222 219 223 227 227 219 209 206 206 204 200 196 193 193 193 193 194
286 287 244 271 191 235 195 249 200 248 244 253 257 250 246 247 241 238 234 235 234 228 223 225 221 217 221 223 223 227 226 227 226 225 223 228 230 225 217 214 211 207 204 203 202 200 200 200 202
286 248 235 259 217 238 191 264 244 258 258 260 258 258 255 250 254 249 245 237 237 235 229 225 225 222 220 225 224 228 229 228 228 230 223 225 230 229 223 220 214 209 209 209 208 207 208 210 209
198 221 238 227 216 206 235 258 281 277 276 257 256 255 251 252 254 257 256 246 239 236 232 229 228 226 222 223 225 227 231 231 229 232 227 223 225 232 230 225 218 213 214 213 213 213 213 215 216
228 252 247 237 218 295 246 269 239 254 267 261 265 254 254 252 255 260 266 257 242 237 230 229 226 227 222 220 221 225 227 229 230 231 228 225 224 228 233 227 225 221 219 219 217 216 218 218 217
251 260 261 278 251 242 274 274 256 224 244 258 265 265 259 262 262 261 264 261 242 237 232 230 229 227 226 224 225 225 228 229 233 234 230 228 226 227 230 234 228 227 224 223 221 219 219 219 219
241 238 257 251 269 237 272 278 274 256 235 253 259 260 264 265 265 262 258 258 256 240 233 231 230 229 228 228 224 222 226 226 230 234 230 230 228 228 229 232 230 230 230 227 225 223 221 222 221
254 221 244 252 234 253 195 278 235 261 256 238 248 259 256 259 260 259 260 257 257 250 239 235 233 229 229 227 218 221 219 219 227 233 233 230 229 229 229 230 234 235 234 231 228 228 227 224 225
251 302 256 244 241 222 242 251 306 220 270 266 257 260 264 266 265 265 264 259 254 254 247 240 236 229 227 225 224 224 219 225 229 229 233 234 232 230 229 229 231 233 232 232 231 228 228 229 229
319 311 302 236 175 243 245 198 271 247 249 263 263 262 268 265 274 291 275 264 260 251 250 243 233 231 228 227 226 227 227 227 222 231 232 236 233 229 230 231 233 233 233 233 232 231 232 233 233
267 272 282 256 206 243 174 194 248 278 274 246 262 266 275 284 268 291 274 282 251 245 245 239 235 233 229 229 229 229 231 231 227 226 228 231 233 231 230 231 230 232 232 234 233 232 232 233 233
304 222 230 211 224 260 171 227 238 227 261 254 263 275 286 289 293 279 289 264 266 265 245 237 237 234 231 232 232 231 233 233 233 228 228 230 233 235 235 234 233 233 233 234 234 234 236 237 236
328 233 251 253 269 277 233 274 288 287 279 274 283 295 301 299 305 302 300 297 268 271 260 247 239 237 238 238 237 234 233 233 234 234 234 233 235 236 237 240 235 236 235 235 238 236 235 237 237
205 344 298 216 239 245 235 253 250 312 310 295 286 301 309 312 317 322 308 298 272 261 256 255 245 240 242 240 237 236 235 236 236 238 234 234 236 237 237 244 242 237 237 238 238 238 237 237 238
206 238 251 332 262 241 252 257 239 220 261 289 305 315 325 332 336 324 308 286 286 278 257 249 247 242 240 239 239 237 236 234 235 237 237 237 238 237 239 241 248 243 240 239 239 239 239 239 238
243 241 163 188 344 292 268 269 279 9 344 337 321 321 320 319 321 340 318 289 270 260 251 245 240 238 243 242 242 241 239 237 234 236 236 237 239 241 242 242 244 245 243 242 240 240 240 241 239